Location: Cheyres
(46.8153°N, 6.7877°E)
Time: 02:55:16
(UTC+00:00)

SJ 16-02 - Pass Details

Date: 11 May 2021
Orbit: 606 x 616 km, 75.0° (Epoch: 18 June)

Event Time Altitude Azimuth Distance (km) Brightness Sun altitude
Rises 22:56:44 0° 259° (W) 2,884 4.8 -24.6°
Reaches altitude 10° 23:00:50 10° 297° (WNW) 1,985 4.3 -24.7°
Maximum altitude 23:01:59 11° 312° (NW) 1,930 4.5 -24.8°
Drops below altitude 10° 23:03:08 10° 327° (NNW) 1,988 4.8 -24.8°
Sets 23:07:17 0° 5° (N) 2,899 6.1 -24.9°
